{"data":{"norad_id":46709,"epoch":"2026-09-20T06:00:02.000160Z","epoch_age_seconds":43478,"freshness":"FRESH","line1":"1 46709U 20073AR  26263.25002315  .00277186  40152-4  80205-3 0  9990","line2":"2 46709  53.0293 355.9309 0009323 346.5626 314.9472 15.92470394  6014","mean_motion":15.92470394,"eccentricity":0.0009323,"inclination_deg":53.0293,"raan_deg":355.9309,"arg_perigee_deg":346.5626,"mean_anomaly_deg":314.9472,"bstar":0.00080205,"rev_number":601,"period_min":90.425542944191,"perigee_km":289.15048431332,"apogee_km":301.59390956193,"semimajor_km":6673.5091969376,"source":"CELESTRAK","updated_at":"2026-09-20T09:00:38.586677Z"}}